Time,TemperatureF,DewpointF,PressureIn,WindDirection,WindDirectionDegrees,WindSpeedMPH,WindSpeedGustMPH,Humidity,HourlyPrecipIn,Conditions,Clouds,dailyrainin,SolarRadiationWatts/m^2,SoftwareType,DateUTC
2013-04-14 00:00:00,45.5,42.2,29.99,South,178,1.0,2.0,88,0.00,,,0.05,0,Wunderground v.1.15,2013-04-14 04:00:00,
2013-04-14 00:05:00,45.6,42.5,29.99,SSW,197,1.0,2.0,89,0.00,,,0.00,0,Wunderground v.1.15,2013-04-14 04:05:00,
2013-04-14 00:10:00,45.6,42.5,29.99,SSW,197,2.0,2.0,89,0.00,,,0.00,0,Wunderground v.1.15,2013-04-14 04:10:00,
2013-04-14 00:15:00,45.7,42.6,29.99,SSW,197,1.0,2.0,89,0.00,,,0.00,0,Wunderground v.1.15,2013-04-14 04:15:00,
2013-04-14 00:20:00,45.8,42.7,29.99,SSW,197,1.0,3.0,89,0.00,,,0.00,0,Wunderground v.1.15,2013-04-14 04:20:00,
2013-04-14 00:25:00,45.8,42.7,29.99,SSW,197,1.0,3.0,89,0.00,,,0.00,0,Wunderground v.1.15,2013-04-14 04:25:00,
2013-04-14 00:30:00,45.9,42.8,30.00,SSW,199,1.0,2.0,89,0.00,,,0.00,0,Wunderground v.1.15,2013-04-14 04:30:00,
2013-04-14 00:35:00,46.0,43.2,30.00,SSW,199,2.0,2.0,90,0.00,,,0.00,0,Wunderground v.1.15,2013-04-14 04:35:00,
2013-04-14 00:40:00,46.2,43.4,30.00,SSW,199,1.0,1.0,90,0.00,,,0.00,0,Wunderground v.1.15,2013-04-14 04:40:00,
2013-04-14 00:45:00,46.3,43.5,30.00,SSW,199,1.0,2.0,90,0.00,,,0.00,0,Wunderground v.1.15,2013-04-14 04:45:00,
2013-04-14 00:50:00,46.0,43.2,30.00,SSW,199,1.0,1.0,90,0.00,,,0.00,0,Wunderground v.1.15,2013-04-14 04:50:00,
2013-04-14 00:55:00,46.0,43.5,30.00,SSW,199,1.0,1.0,91,0.00,,,0.00,0,Wunderground v.1.15,2013-04-14 04:55:00,
2013-04-14 01:00:00,46.3,44.1,30.00,SSW,199,1.0,1.0,92,0.00,,,0.00,0,Wunderground v.1.15,2013-04-14 05:00:00,
2013-04-14 01:05:00,46.1,43.6,30.00,SSW,199,1.0,1.0,91,0.00,,,0.00,0,Wunderground v.1.15,2013-04-14 05:05:00,
2013-04-14 01:15:00,45.4,43.2,30.00,SSW,199,0.0,1.0,92,0.00,,,0.00,0,Wunderground v.1.15,2013-04-14 05:15:00,
2013-04-14 01:20:00,45.7,43.8,30.00,NNW,340,0.0,0.0,93,0.00,,,0.00,0,Wunderground v.1.15,2013-04-14 05:20:00,
2013-04-14 01:25:00,46.0,44.1,30.00,NNW,340,1.0,2.0,93,0.00,,,0.00,0,Wunderground v.1.15,2013-04-14 05:25:00,
2013-04-14 01:30:00,45.6,43.7,30.00,NNW,340,1.0,1.0,93,0.00,,,0.00,0,Wunderground v.1.15,2013-04-14 05:30:00,
2013-04-14 01:35:00,45.4,43.5,29.99,NNW,340,1.0,1.0,93,0.00,,,0.00,0,Wunderground v.1.15,2013-04-14 05:35:00,
2013-04-14 01:40:00,45.3,43.4,30.00,NNW,340,0.0,0.0,93,0.00,,,0.00,0,Wunderground v.1.15,2013-04-14 05:40:00,
2013-04-14 01:45:00,45.4,43.5,30.00,NNW,340,0.0,0.0,93,0.00,,,0.00,0,Wunderground v.1.15,2013-04-14 05:45:00,
2013-04-14 01:50:00,45.5,43.6,30.00,West,259,1.0,1.0,93,0.00,,,0.00,0,Wunderground v.1.15,2013-04-14 05:50:00,
2013-04-14 02:00:00,46.0,44.1,29.99,WSW,247,1.0,1.0,93,0.00,,,0.00,0,Wunderground v.1.15,2013-04-14 06:00:00,
2013-04-14 02:05:00,45.9,44.0,30.00,WSW,248,1.0,1.0,93,0.00,,,0.00,0,Wunderground v.1.15,2013-04-14 06:05:00,
2013-04-14 02:10:00,45.8,43.9,30.00,WSW,247,0.0,0.0,93,0.00,,,0.00,0,Wunderground v.1.15,2013-04-14 06:10:00,
2013-04-14 02:15:00,45.8,44.2,30.00,WSW,247,0.0,0.0,94,0.00,,,0.00,0,Wunderground v.1.15,2013-04-14 06:15:00,
2013-04-14 02:20:00,45.8,43.9,29.99,WSW,247,0.0,2.0,93,0.00,,,0.00,0,Wunderground v.1.15,2013-04-14 06:20:00,
2013-04-14 02:25:00,45.9,44.3,29.99,WSW,247,1.0,3.0,94,0.00,,,0.00,0,Wunderground v.1.15,2013-04-14 06:25:00,
2013-04-14 02:30:00,45.9,44.3,29.99,SSE,159,1.0,1.0,94,0.00,,,0.00,0,Wunderground v.1.15,2013-04-14 06:30:00,
2013-04-14 02:35:00,45.8,44.2,29.99,SSE,161,1.0,1.0,94,0.00,,,0.00,0,Wunderground v.1.15,2013-04-14 06:35:00,
2013-04-14 02:40:00,46.0,44.4,29.99,SSE,161,0.0,0.0,94,0.00,,,0.00,0,Wunderground v.1.15,2013-04-14 06:40:00,
2013-04-14 02:45:00,45.8,44.2,29.99,SSE,161,0.0,0.0,94,0.00,,,0.00,0,Wunderground v.1.15,2013-04-14 06:45:00,
2013-04-14 02:50:00,45.7,44.1,29.98,SSE,161,0.0,0.0,94,0.00,,,0.00,0,Wunderground v.1.15,2013-04-14 06:50:00,
2013-04-14 02:55:00,45.6,44.0,29.98,SSE,161,0.0,0.0,94,0.00,,,0.00,0,Wunderground v.1.15,2013-04-14 06:55:00,
2013-04-14 03:00:00,45.8,44.4,29.98,SSE,161,0.0,0.0,95,0.00,,,0.00,0,Wunderground v.1.15,2013-04-14 07:00:00,
2013-04-14 03:05:00,45.6,44.3,29.98,SSE,161,0.0,0.0,95,0.00,,,0.00,0,Wunderground v.1.15,2013-04-14 07:05:00,
2013-04-14 03:10:00,45.8,44.4,29.98,SSE,161,0.0,2.0,95,0.00,,,0.00,0,Wunderground v.1.15,2013-04-14 07:10:00,
2013-04-14 03:15:00,45.6,44.3,29.99,SSE,161,0.0,2.0,95,0.00,,,0.00,0,Wunderground v.1.15,2013-04-14 07:15:00,
2013-04-14 03:20:00,45.8,44.4,29.98,SSE,161,0.0,0.0,95,0.00,,,0.00,0,Wunderground v.1.15,2013-04-14 07:20:00,
2013-04-14 03:25:00,45.9,44.5,29.98,SSE,161,0.0,0.0,95,0.00,,,0.00,0,Wunderground v.1.15,2013-04-14 07:25:00,
2013-04-14 03:30:00,45.9,44.5,29.98,SSE,161,0.0,0.0,95,0.00,,,0.00,0,Wunderground v.1.15,2013-04-14 07:30:00,
2013-04-14 03:35:00,45.9,44.5,29.98,SSE,161,0.0,0.0,95,0.00,,,0.00,0,Wunderground v.1.15,2013-04-14 07:35:00,
2013-04-14 03:40:00,45.7,44.4,29.98,SSE,161,0.0,0.0,95,0.00,,,0.00,0,Wunderground v.1.15,2013-04-14 07:40:00,
2013-04-14 03:45:00,45.8,44.4,29.98,SSE,161,0.0,2.0,95,0.00,,,0.00,0,Wunderground v.1.15,2013-04-14 07:45:00,
2013-04-14 03:50:00,45.8,44.4,29.98,SSE,161,0.0,0.0,95,0.00,,,0.00,0,Wunderground v.1.15,2013-04-14 07:50:00,
2013-04-14 03:55:00,45.8,44.4,29.98,SSE,161,1.0,2.0,95,0.00,,,0.00,0,Wunderground v.1.15,2013-04-14 07:55:00,
2013-04-14 04:00:00,45.7,44.4,29.98,SSE,161,1.0,2.0,95,0.00,,,0.00,0,Wunderground v.1.15,2013-04-14 08:00:00,
2013-04-14 04:05:00,45.8,44.4,29.98,SSE,161,1.0,2.0,95,0.00,,,0.00,0,Wunderground v.1.15,2013-04-14 08:05:00,
2013-04-14 04:10:00,45.6,44.3,29.98,SSE,161,1.0,2.0,95,0.00,,,0.00,0,Wunderground v.1.15,2013-04-14 08:10:00,
2013-04-14 04:15:00,45.8,44.4,29.98,SSE,161,1.0,2.0,95,0.00,,,0.00,0,Wunderground v.1.15,2013-04-14 08:15:00,
2013-04-14 04:20:00,45.8,44.4,29.99,SSE,161,1.0,1.0,95,0.00,,,0.00,0,Wunderground v.1.15,2013-04-14 08:20:00,
2013-04-14 04:25:00,45.7,44.4,29.99,SSE,161,0.0,3.0,95,0.00,,,0.00,0,Wunderground v.1.15,2013-04-14 08:25:00,
2013-04-14 04:30:00,45.8,44.4,29.99,SSE,161,0.0,0.0,95,0.00,,,0.00,0,Wunderground v.1.15,2013-04-14 08:30:00,
2013-04-14 04:35:00,45.8,44.4,29.99,SSE,161,0.0,0.0,95,0.00,,,0.00,0,Wunderground v.1.15,2013-04-14 08:35:00,
2013-04-14 04:40:00,45.6,44.3,29.99,SSE,161,0.0,3.0,95,0.00,,,0.00,0,Wunderground v.1.15,2013-04-14 08:40:00,
2013-04-14 04:45:00,45.7,44.4,29.99,SSE,161,0.0,3.0,95,0.00,,,0.00,0,Wunderground v.1.15,2013-04-14 08:45:00,
2013-04-14 04:50:00,45.6,44.3,29.99,SSE,161,0.0,1.0,95,0.00,,,0.00,0,Wunderground v.1.15,2013-04-14 08:50:00,
2013-04-14 04:55:00,45.8,44.4,29.99,SSE,162,1.0,1.0,95,0.00,,,0.00,0,Wunderground v.1.15,2013-04-14 08:55:00,
2013-04-14 05:00:00,45.7,44.4,29.99,SSE,162,1.0,2.0,95,0.00,,,0.00,0,Wunderground v.1.15,2013-04-14 09:00:00,
2013-04-14 05:05:00,45.8,44.4,29.99,SSE,162,1.0,2.0,95,0.00,,,0.00,0,Wunderground v.1.15,2013-04-14 09:05:00,
2013-04-14 05:10:00,45.5,44.2,29.99,SSE,162,0.0,0.0,95,0.00,,,0.00,0,Wunderground v.1.15,2013-04-14 09:10:00,
2013-04-14 05:15:00,45.6,44.3,29.99,SSE,162,0.0,0.0,95,0.00,,,0.00,0,Wunderground v.1.15,2013-04-14 09:15:00,
2013-04-14 05:25:00,45.3,43.7,30.00,SSE,162,0.0,1.0,94,0.00,,,0.00,0,Wunderground v.1.15,2013-04-14 09:25:00,
2013-04-14 05:30:00,45.3,43.7,30.00,SSE,162,0.0,0.0,94,0.00,,,0.00,0,Wunderground v.1.15,2013-04-14 09:30:00,
2013-04-14 05:35:00,45.4,43.8,30.00,SSE,162,1.0,1.0,94,0.00,,,0.00,0,Wunderground v.1.15,2013-04-14 09:35:00,
2013-04-14 05:40:00,45.3,43.7,30.00,SSE,162,0.0,0.0,94,0.00,,,0.00,0,Wunderground v.1.15,2013-04-14 09:40:00,
2013-04-14 05:45:00,45.2,43.6,29.99,SSE,162,0.0,0.0,94,0.00,,,0.00,0,Wunderground v.1.15,2013-04-14 09:45:00,
2013-04-14 05:50:00,45.1,43.5,30.00,SSE,162,0.0,2.0,94,0.00,,,0.00,0,Wunderground v.1.15,2013-04-14 09:50:00,
2013-04-14 05:55:00,45.2,43.6,30.00,SSE,162,0.0,2.0,94,0.00,,,0.00,0,Wunderground v.1.15,2013-04-14 09:55:00,
2013-04-14 06:00:00,45.0,43.4,30.00,SSE,162,0.0,0.0,94,0.00,,,0.00,0,Wunderground v.1.15,2013-04-14 10:00:00,
2013-04-14 06:05:00,44.9,43.0,30.00,SSE,162,0.0,0.0,93,0.00,,,0.00,0,Wunderground v.1.15,2013-04-14 10:05:00,
2013-04-14 06:10:00,44.7,43.1,30.00,SSE,162,1.0,1.0,94,0.00,,,0.00,0,Wunderground v.1.15,2013-04-14 10:10:00,
2013-04-14 06:15:00,44.9,43.3,30.01,SW,227,1.0,1.0,94,0.00,,,0.00,0,Wunderground v.1.15,2013-04-14 10:15:00,
2013-04-14 06:20:00,44.9,43.3,30.01,SW,225,1.0,6.0,94,0.00,,,0.00,5,Wunderground v.1.15,2013-04-14 10:20:00,
2013-04-14 06:25:00,45.0,43.1,30.01,SW,225,1.0,6.0,93,0.00,,,0.00,7,Wunderground v.1.15,2013-04-14 10:25:00,
2013-04-14 06:30:00,45.0,43.1,30.01,SW,225,1.0,1.0,93,0.00,,,0.00,12,Wunderground v.1.15,2013-04-14 10:30:00,
2013-04-14 06:35:00,44.6,42.4,30.02,SW,225,1.0,1.0,92,0.00,,,0.00,16,Wunderground v.1.15,2013-04-14 10:35:00,
2013-04-14 06:40:00,44.2,42.3,30.02,SW,225,0.0,0.0,93,0.00,,,0.00,21,Wunderground v.1.15,2013-04-14 10:40:00,
2013-04-14 06:45:00,44.0,42.1,30.02,SW,225,0.0,0.0,93,0.00,,,0.00,21,Wunderground v.1.15,2013-04-14 10:45:00,
2013-04-14 06:50:00,43.7,41.8,30.02,SW,225,0.0,0.0,93,0.00,,,0.00,19,Wunderground v.1.15,2013-04-14 10:50:00,
2013-04-14 06:55:00,43.4,41.5,30.02,SW,225,0.0,0.0,93,0.00,,,0.00,21,Wunderground v.1.15,2013-04-14 10:55:00,
2013-04-14 07:00:00,43.3,41.4,30.02,SW,225,0.0,1.0,93,0.00,,,0.00,25,Wunderground v.1.15,2013-04-14 11:00:00,
2013-04-14 07:05:00,43.3,41.4,30.03,SW,225,0.0,1.0,93,0.00,,,0.00,30,Wunderground v.1.15,2013-04-14 11:05:00,
2013-04-14 07:10:00,43.3,41.7,30.03,WSW,251,1.0,1.0,94,0.00,,,0.00,35,Wunderground v.1.15,2013-04-14 11:10:00,
2013-04-14 07:15:00,43.8,42.2,30.02,WSW,251,1.0,1.0,94,0.00,,,0.00,39,Wunderground v.1.15,2013-04-14 11:15:00,
2013-04-14 07:20:00,44.1,42.5,30.02,WSW,251,0.0,0.0,94,0.00,,,0.00,40,Wunderground v.1.15,2013-04-14 11:20:00,
2013-04-14 07:25:00,44.3,42.7,30.03,WSW,251,0.0,0.0,94,0.00,,,0.00,44,Wunderground v.1.15,2013-04-14 11:25:00,
2013-04-14 07:30:00,45.0,43.4,30.03,WSW,251,0.0,0.0,94,0.00,,,0.00,141,Wunderground v.1.15,2013-04-14 11:30:00,
2013-04-14 07:35:00,45.6,43.7,30.03,WSW,251,1.0,1.0,93,0.00,,,0.00,171,Wunderground v.1.15,2013-04-14 11:35:00,
2013-04-14 07:40:00,46.4,44.5,30.03,WSW,251,1.0,1.0,93,0.00,,,0.00,183,Wunderground v.1.15,2013-04-14 11:40:00,
2013-04-14 07:45:00,47.0,44.5,30.03,WSW,251,1.0,1.0,91,0.00,,,0.00,202,Wunderground v.1.15,2013-04-14 11:45:00,
2013-04-14 07:50:00,48.3,44.9,30.03,WSW,251,1.0,1.0,88,0.00,,,0.00,230,Wunderground v.1.15,2013-04-14 11:50:00,
2013-04-14 07:55:00,49.5,44.9,30.03,WSW,244,2.0,6.0,84,0.00,,,0.00,283,Wunderground v.1.15,2013-04-14 11:55:00,
2013-04-14 08:00:00,50.8,44.5,30.03,West,272,3.0,3.0,79,0.00,,,0.00,385,Wunderground v.1.15,2013-04-14 12:00:00,
2013-04-14 08:05:00,51.9,43.9,30.03,West,273,2.0,3.0,74,0.00,,,0.00,388,Wunderground v.1.15,2013-04-14 12:05:00,
2013-04-14 08:10:00,52.3,43.2,30.03,WSW,254,2.0,4.0,71,0.00,,,0.00,153,Wunderground v.1.15,2013-04-14 12:10:00,
2013-04-14 08:15:00,52.3,42.4,30.03,WSW,242,3.0,5.0,69,0.00,,,0.00,160,Wunderground v.1.15,2013-04-14 12:15:00,
2013-04-14 08:20:00,52.2,42.7,30.03,WSW,240,3.0,4.0,70,0.00,,,0.00,239,Wunderground v.1.15,2013-04-14 12:20:00,
2013-04-14 08:25:00,52.6,43.1,30.03,NNW,338,3.0,6.0,70,0.00,,,0.00,483,Wunderground v.1.15,2013-04-14 12:25:00,
2013-04-14 08:30:00,53.4,42.3,30.04,WNW,284,6.0,8.0,66,0.00,,,0.00,272,Wunderground v.1.15,2013-04-14 12:30:00,
2013-04-14 08:35:00,53.6,41.7,30.04,WNW,291,7.0,8.0,64,0.00,,,0.00,255,Wunderground v.1.15,2013-04-14 12:35:00,
2013-04-14 08:40:00,53.6,41.3,30.04,WNW,283,7.0,8.0,63,0.00,,,0.00,276,Wunderground v.1.15,2013-04-14 12:40:00,
2013-04-14 08:45:00,53.5,39.9,30.04,WNW,302,8.0,8.0,60,0.00,,,0.00,269,Wunderground v.1.15,2013-04-14 12:45:00,
2013-04-14 08:50:00,53.3,40.6,30.04,WNW,284,8.0,8.0,62,0.00,,,0.00,244,Wunderground v.1.15,2013-04-14 12:50:00,
2013-04-14 08:55:00,53.1,39.1,30.04,WSW,255,7.0,8.0,59,0.00,,,0.00,211,Wunderground v.1.15,2013-04-14 12:55:00,
2013-04-14 09:00:00,52.8,40.1,30.04,SW,228,7.0,10.0,62,0.00,,,0.00,265,Wunderground v.1.15,2013-04-14 13:00:00,
2013-04-14 09:05:00,53.3,39.8,30.04,WNW,296,7.0,10.0,60,0.00,,,0.00,482,Wunderground v.1.15,2013-04-14 13:05:00,
2013-04-14 09:10:00,54.0,40.0,30.04,West,279,6.0,6.0,59,0.00,,,0.00,571,Wunderground v.1.15,2013-04-14 13:10:00,
2013-04-14 09:15:00,54.4,40.8,30.04,NW,309,5.0,6.0,60,0.00,,,0.00,534,Wunderground v.1.15,2013-04-14 13:15:00,
2013-04-14 09:20:00,54.4,40.4,30.04,West,277,7.0,7.0,59,0.00,,,0.00,547,Wunderground v.1.15,2013-04-14 13:20:00,
2013-04-14 09:25:00,54.6,39.7,30.04,SW,234,8.0,8.0,57,0.00,,,0.00,598,Wunderground v.1.15,2013-04-14 13:25:00,
2013-04-14 09:30:00,54.8,40.7,30.04,WNW,289,7.0,9.0,59,0.00,,,0.00,659,Wunderground v.1.15,2013-04-14 13:30:00,
2013-04-14 09:35:00,54.5,39.6,30.04,West,279,8.0,9.0,57,0.00,,,0.00,236,Wunderground v.1.15,2013-04-14 13:35:00,
2013-04-14 09:40:00,54.0,40.8,30.05,NNW,348,8.0,8.0,61,0.00,,,0.00,622,Wunderground v.1.15,2013-04-14 13:40:00,
2013-04-14 09:45:00,53.4,40.3,30.05,WNW,292,9.0,9.0,61,0.00,,,0.00,610,Wunderground v.1.15,2013-04-14 13:45:00,
2013-04-14 09:50:00,53.6,40.5,30.05,NNW,342,8.0,8.0,61,0.00,,,0.00,631,Wunderground v.1.15,2013-04-14 13:50:00,
2013-04-14 09:55:00,53.5,40.4,30.05,NNE,13,7.0,11.0,61,0.00,,,0.00,628,Wunderground v.1.15,2013-04-14 13:55:00,
2013-04-14 10:00:00,53.3,40.6,30.05,NNW,348,7.0,7.0,62,0.00,,,0.00,675,Wunderground v.1.15,2013-04-14 14:00:00,
2013-04-14 10:05:00,53.9,42.0,30.05,NNW,336,7.0,7.0,64,0.00,,,0.00,675,Wunderground v.1.15,2013-04-14 14:05:00,
2013-04-14 10:10:00,54.3,39.8,30.06,WNW,288,6.0,9.0,58,0.00,,,0.00,710,Wunderground v.1.15,2013-04-14 14:10:00,
2013-04-14 10:15:00,53.6,40.0,30.06,North,360,7.0,9.0,60,0.00,,,0.00,717,Wunderground v.1.15,2013-04-14 14:15:00,
2013-04-14 10:20:00,53.1,39.6,30.06,NNW,342,8.0,8.0,60,0.00,,,0.00,705,Wunderground v.1.15,2013-04-14 14:20:00,
2013-04-14 10:25:00,53.3,40.2,30.06,NW,314,7.0,8.0,61,0.00,,,0.00,722,Wunderground v.1.15,2013-04-14 14:25:00,
2013-04-14 10:30:00,53.7,40.1,30.06,WSW,247,7.0,7.0,60,0.00,,,0.00,737,Wunderground v.1.15,2013-04-14 14:30:00,
2013-04-14 10:35:00,54.0,40.4,30.06,West,275,7.0,9.0,60,0.00,,,0.00,751,Wunderground v.1.15,2013-04-14 14:35:00,
2013-04-14 10:45:00,54.3,41.6,30.06,NNW,328,9.0,9.0,62,0.00,,,0.00,768,Wunderground v.1.15,2013-04-14 14:45:00,
2013-04-14 10:50:00,55.0,40.5,30.06,WNW,293,8.0,8.0,58,0.00,,,0.00,784,Wunderground v.1.15,2013-04-14 14:50:00,
2013-04-14 10:55:00,54.6,39.2,30.06,North,9,8.0,10.0,56,0.00,,,0.00,795,Wunderground v.1.15,2013-04-14 14:55:00,
2013-04-14 11:00:00,54.3,39.8,30.06,NNW,348,9.0,9.0,58,0.00,,,0.00,837,Wunderground v.1.15,2013-04-14 15:00:00,
2013-04-14 11:05:00,54.1,38.3,30.06,WNW,299,9.0,9.0,55,0.00,,,0.00,190,Wunderground v.1.15,2013-04-14 15:05:00,
2013-04-14 11:10:00,55.0,41.8,30.06,NW,320,8.0,8.0,61,0.00,,,0.00,911,Wunderground v.1.15,2013-04-14 15:10:00,
2013-04-14 11:15:00,54.7,39.3,30.06,NW,306,7.0,12.0,56,0.00,,,0.00,229,Wunderground v.1.15,2013-04-14 15:15:00,
2013-04-14 11:20:00,55.0,40.5,30.07,West,280,7.0,7.0,58,0.00,,,0.00,896,Wunderground v.1.15,2013-04-14 15:20:00,
2013-04-14 11:25:00,55.6,40.1,30.07,NW,322,7.0,12.0,56,0.00,,,0.00,461,Wunderground v.1.15,2013-04-14 15:25:00,
2013-04-14 11:30:00,55.2,40.7,30.07,WNW,286,8.0,17.0,58,0.00,,,0.00,960,Wunderground v.1.15,2013-04-14 15:30:00,
2013-04-14 11:35:00,54.9,38.1,30.07,NNW,347,10.0,17.0,53,0.00,,,0.00,886,Wunderground v.1.15,2013-04-14 15:35:00,
2013-04-14 11:40:00,55.2,38.8,30.07,WNW,288,10.0,11.0,54,0.00,,,0.00,900,Wunderground v.1.15,2013-04-14 15:40:00,
2013-04-14 11:45:00,55.1,38.7,30.07,North,5,9.0,11.0,54,0.00,,,0.00,893,Wunderground v.1.15,2013-04-14 15:45:00,
2013-04-14 11:50:00,55.5,39.1,30.07,NNW,332,9.0,17.0,54,0.00,,,0.00,882,Wunderground v.1.15,2013-04-14 15:50:00,
2013-04-14 11:55:00,55.4,38.5,30.07,WNW,283,8.0,17.0,53,0.00,,,0.00,926,Wunderground v.1.15,2013-04-14 15:55:00,
2013-04-14 12:00:00,55.8,39.4,30.07,NW,305,9.0,10.0,54,0.00,,,0.00,935,Wunderground v.1.15,2013-04-14 16:00:00,
2013-04-14 12:05:00,56.6,39.2,30.07,WNW,303,10.0,12.0,52,0.00,,,0.00,1081,Wunderground v.1.15,2013-04-14 16:05:00,
2013-04-14 12:10:00,55.8,36.9,30.07,NW,307,9.0,9.0,49,0.00,,,0.00,1081,Wunderground v.1.15,2013-04-14 16:10:00,
2013-04-14 12:15:00,55.5,37.1,30.07,NNW,343,10.0,10.0,50,0.00,,,0.00,1011,Wunderground v.1.15,2013-04-14 16:15:00,
2013-04-14 12:20:00,55.8,36.4,30.07,NNW,331,10.0,10.0,48,0.00,,,0.00,930,Wunderground v.1.15,2013-04-14 16:20:00,
2013-04-14 12:25:00,55.4,37.1,30.07,North,349,10.0,16.0,50,0.00,,,0.00,928,Wunderground v.1.15,2013-04-14 16:25:00,
2013-04-14 12:35:00,55.0,36.2,30.06,WNW,292,9.0,10.0,49,0.00,,,0.00,274,Wunderground v.1.15,2013-04-14 16:35:00,
2013-04-14 12:40:00,54.1,37.3,30.06,North,5,8.0,8.0,53,0.00,,,0.00,990,Wunderground v.1.15,2013-04-14 16:40:00,
2013-04-14 12:45:00,54.7,38.4,30.07,NNW,331,8.0,15.0,54,0.00,,,0.00,940,Wunderground v.1.15,2013-04-14 16:45:00,
2013-04-14 12:50:00,55.1,37.8,30.07,NW,326,9.0,9.0,52,0.00,,,0.00,958,Wunderground v.1.15,2013-04-14 16:50:00,
2013-04-14 12:55:00,55.9,37.0,30.07,WNW,288,8.0,9.0,49,0.00,,,0.00,974,Wunderground v.1.15,2013-04-14 16:55:00,
2013-04-14 13:00:00,56.3,37.4,30.07,North,360,8.0,17.0,49,0.00,,,0.00,933,Wunderground v.1.15,2013-04-14 17:00:00,
2013-04-14 13:05:00,56.1,37.7,30.07,NW,307,9.0,17.0,50,0.00,,,0.00,932,Wunderground v.1.15,2013-04-14 17:05:00,
2013-04-14 13:10:00,56.4,38.0,30.07,North,11,9.0,9.0,50,0.00,,,0.00,937,Wunderground v.1.15,2013-04-14 17:10:00,
2013-04-14 13:15:00,56.3,37.9,30.06,NNW,327,9.0,9.0,50,0.00,,,0.00,926,Wunderground v.1.15,2013-04-14 17:15:00,
2013-04-14 13:20:00,56.2,35.1,30.07,NNW,340,9.0,9.0,45,0.00,,,0.00,925,Wunderground v.1.15,2013-04-14 17:20:00,
2013-04-14 13:25:00,56.4,39.5,30.07,North,360,10.0,11.0,53,0.00,,,0.00,921,Wunderground v.1.15,2013-04-14 17:25:00,
2013-04-14 13:30:00,55.9,36.5,30.07,NW,324,9.0,9.0,48,0.00,,,0.00,925,Wunderground v.1.15,2013-04-14 17:30:00,
2013-04-14 13:35:00,56.6,39.7,30.07,NW,316,8.0,9.0,53,0.00,,,0.00,916,Wunderground v.1.15,2013-04-14 17:35:00,
2013-04-14 13:40:00,56.7,38.3,30.07,South,181,8.0,8.0,50,0.00,,,0.00,919,Wunderground v.1.15,2013-04-14 17:40:00,
2013-04-14 13:45:00,56.8,36.2,30.07,NW,325,8.0,11.0,46,0.00,,,0.00,914,Wunderground v.1.15,2013-04-14 17:45:00,
2013-04-14 13:55:00,55.6,34.6,30.08,NNW,347,9.0,9.0,45,0.00,,,0.00,909,Wunderground v.1.15,2013-04-14 17:55:00,
2013-04-14 14:00:00,55.8,35.9,30.08,North,355,9.0,12.0,47,0.00,,,0.00,895,Wunderground v.1.15,2013-04-14 18:00:00,
2013-04-14 14:05:00,55.6,36.7,30.07,NW,304,9.0,12.0,49,0.00,,,0.00,888,Wunderground v.1.15,2013-04-14 18:05:00,
2013-04-14 14:10:00,56.1,36.1,30.07,NW,314,9.0,12.0,47,0.00,,,0.00,888,Wunderground v.1.15,2013-04-14 18:10:00,
2013-04-14 14:15:00,56.5,38.1,30.07,West,269,9.0,12.0,50,0.00,,,0.00,879,Wunderground v.1.15,2013-04-14 18:15:00,
2013-04-14 14:20:00,56.2,36.2,30.07,WNW,287,9.0,9.0,47,0.00,,,0.00,875,Wunderground v.1.15,2013-04-14 18:20:00,
2013-04-14 14:25:00,56.4,37.5,30.08,North,355,9.0,9.0,49,0.00,,,0.00,867,Wunderground v.1.15,2013-04-14 18:25:00,
2013-04-14 14:30:00,56.2,36.8,30.07,NNW,339,10.0,18.0,48,0.00,,,0.00,860,Wunderground v.1.15,2013-04-14 18:30:00,
2013-04-14 14:35:00,55.8,34.8,30.07,NNW,346,11.0,18.0,45,0.00,,,0.00,851,Wunderground v.1.15,2013-04-14 18:35:00,
2013-04-14 14:40:00,56.4,35.3,30.08,North,360,10.0,10.0,45,0.00,,,0.00,846,Wunderground v.1.15,2013-04-14 18:40:00,
2013-04-14 14:45:00,56.0,35.5,30.08,NW,315,10.0,16.0,46,0.00,,,0.00,824,Wunderground v.1.15,2013-04-14 18:45:00,
2013-04-14 14:50:00,55.7,36.3,30.08,North,350,12.0,12.0,48,0.00,,,0.00,828,Wunderground v.1.15,2013-04-14 18:50:00,
2013-04-14 14:55:00,56.1,35.0,30.08,North,355,12.0,12.0,45,0.00,,,0.00,823,Wunderground v.1.15,2013-04-14 18:55:00,
2013-04-14 15:05:00,56.0,38.1,30.08,NNW,337,10.0,16.0,51,0.00,,,0.00,800,Wunderground v.1.15,2013-04-14 19:05:00,
2013-04-14 15:10:00,56.6,36.0,30.08,NNW,327,10.0,10.0,46,0.00,,,0.00,795,Wunderground v.1.15,2013-04-14 19:10:00,
2013-04-14 15:15:00,56.4,34.2,30.08,WNW,287,9.0,10.0,43,0.00,,,0.00,770,Wunderground v.1.15,2013-04-14 19:15:00,
2013-04-14 15:25:00,56.2,36.2,30.08,NW,316,7.0,12.0,47,0.00,,,0.00,735,Wunderground v.1.15,2013-04-14 19:25:00,
2013-04-14 15:30:00,55.6,35.1,30.08,WNW,289,8.0,8.0,46,0.00,,,0.00,742,Wunderground v.1.15,2013-04-14 19:30:00,
2013-04-14 15:35:00,55.7,35.8,30.08,WNW,301,9.0,10.0,47,0.00,,,0.00,735,Wunderground v.1.15,2013-04-14 19:35:00,
2013-04-14 15:40:00,55.8,34.2,30.08,North,355,9.0,13.0,44,0.00,,,0.00,680,Wunderground v.1.15,2013-04-14 19:40:00,
2013-04-14 15:45:00,55.3,34.3,30.08,NNW,342,9.0,13.0,45,0.00,,,0.00,705,Wunderground v.1.15,2013-04-14 19:45:00,
2013-04-14 15:50:00,55.4,34.4,30.08,WNW,289,11.0,11.0,45,0.00,,,0.00,705,Wunderground v.1.15,2013-04-14 19:50:00,
2013-04-14 15:55:00,55.9,35.4,30.08,North,355,11.0,11.0,46,0.00,,,0.00,684,Wunderground v.1.15,2013-04-14 19:55:00,
2013-04-14 16:00:00,55.4,33.8,30.08,North,355,11.0,11.0,44,0.00,,,0.00,649,Wunderground v.1.15,2013-04-14 20:00:00,
2013-04-14 16:05:00,55.7,35.8,30.08,NNE,29,9.0,15.0,47,0.00,,,0.00,577,Wunderground v.1.15,2013-04-14 20:05:00,
2013-04-14 16:10:00,56.1,34.5,30.08,NW,318,8.0,8.0,44,0.00,,,0.00,587,Wunderground v.1.15,2013-04-14 20:10:00,
2013-04-14 16:15:00,55.9,34.8,30.08,NW,315,8.0,9.0,45,0.00,,,0.00,598,Wunderground v.1.15,2013-04-14 20:15:00,
2013-04-14 16:20:00,55.0,32.9,30.08,NW,309,10.0,10.0,43,0.00,,,0.00,563,Wunderground v.1.15,2013-04-14 20:20:00,
2013-04-14 16:25:00,54.7,34.3,30.08,NNW,339,10.0,10.0,46,0.00,,,0.00,536,Wunderground v.1.15,2013-04-14 20:25:00,
2013-04-14 16:30:00,54.9,33.9,30.08,WNW,302,10.0,12.0,45,0.00,,,0.00,508,Wunderground v.1.15,2013-04-14 20:30:00,
2013-04-14 16:35:00,55.3,34.3,30.08,NNE,26,8.0,12.0,45,0.00,,,0.00,512,Wunderground v.1.15,2013-04-14 20:35:00,
2013-04-14 16:40:00,55.0,34.0,30.09,North,5,8.0,10.0,45,0.00,,,0.00,508,Wunderground v.1.15,2013-04-14 20:40:00,
2013-04-14 16:45:00,54.8,34.4,30.09,NW,317,9.0,11.0,46,0.00,,,0.00,485,Wunderground v.1.15,2013-04-14 20:45:00,
2013-04-14 16:50:00,55.1,35.2,30.09,NW,323,8.0,11.0,47,0.00,,,0.00,457,Wunderground v.1.15,2013-04-14 20:50:00,
2013-04-14 16:55:00,55.3,33.7,30.09,NNW,331,8.0,11.0,44,0.00,,,0.00,104,Wunderground v.1.15,2013-04-14 20:55:00,
2013-04-14 17:00:00,55.0,33.5,30.10,NNW,342,8.0,14.0,44,0.00,,,0.00,86,Wunderground v.1.15,2013-04-14 21:00:00,
2013-04-14 17:05:00,54.9,32.8,30.10,NW,321,9.0,14.0,43,0.00,,,0.00,70,Wunderground v.1.15,2013-04-14 21:05:00,
2013-04-14 17:10:00,54.9,32.8,30.11,NW,319,9.0,9.0,43,0.00,,,0.00,72,Wunderground v.1.15,2013-04-14 21:10:00,
2013-04-14 17:15:00,55.0,32.3,30.11,NW,306,7.0,9.0,42,0.00,,,0.00,76,Wunderground v.1.15,2013-04-14 21:15:00,
2013-04-14 17:20:00,55.2,33.6,30.11,NNE,19,6.0,6.0,44,0.00,,,0.00,79,Wunderground v.1.15,2013-04-14 21:20:00,
2013-04-14 17:30:00,54.5,34.1,30.11,North,5,8.0,14.0,46,0.00,,,0.00,81,Wunderground v.1.15,2013-04-14 21:30:00,
2013-04-14 17:35:00,54.1,32.1,30.11,NNW,336,9.0,14.0,43,0.00,,,0.00,76,Wunderground v.1.15,2013-04-14 21:35:00,
2013-04-14 17:40:00,54.0,33.7,30.11,NNW,337,7.0,11.0,46,0.00,,,0.00,72,Wunderground v.1.15,2013-04-14 21:40:00,
2013-04-14 17:45:00,53.7,32.3,30.11,North,360,7.0,11.0,44,0.00,,,0.00,76,Wunderground v.1.15,2013-04-14 21:45:00,
2013-04-14 17:50:00,53.4,33.7,30.11,NNW,332,8.0,8.0,47,0.00,,,0.00,76,Wunderground v.1.15,2013-04-14 21:50:00,
2013-04-14 17:55:00,53.3,33.0,30.11,NNW,340,8.0,8.0,46,0.00,,,0.00,74,Wunderground v.1.15,2013-04-14 21:55:00,
2013-04-14 18:00:00,53.1,32.8,30.11,NNE,15,9.0,9.0,46,0.00,,,0.00,72,Wunderground v.1.15,2013-04-14 22:00:00,
2013-04-14 18:05:00,52.9,32.1,30.12,NNW,328,8.0,9.0,45,0.00,,,0.00,70,Wunderground v.1.15,2013-04-14 22:05:00,
2013-04-14 18:10:00,52.7,33.0,30.12,NNE,26,7.0,10.0,47,0.00,,,0.00,70,Wunderground v.1.15,2013-04-14 22:10:00,
2013-04-14 18:15:00,52.7,33.0,30.12,NNE,26,5.0,11.0,47,0.00,,,0.00,69,Wunderground v.1.15,2013-04-14 22:15:00,
2013-04-14 18:20:00,52.6,32.4,30.13,NNW,339,6.0,6.0,46,0.00,,,0.00,65,Wunderground v.1.15,2013-04-14 22:20:00,
2013-04-14 18:25:00,52.4,32.2,30.13,NNW,339,7.0,7.0,46,0.00,,,0.00,62,Wunderground v.1.15,2013-04-14 22:25:00,
2013-04-14 18:30:00,52.3,32.1,30.13,North,360,5.0,11.0,46,0.00,,,0.00,53,Wunderground v.1.15,2013-04-14 22:30:00,
2013-04-14 18:35:00,52.1,31.9,30.13,NNW,340,7.0,11.0,46,0.00,,,0.00,47,Wunderground v.1.15,2013-04-14 22:35:00,
2013-04-14 18:40:00,51.9,32.8,30.14,NNE,26,6.0,8.0,48,0.00,,,0.00,44,Wunderground v.1.15,2013-04-14 22:40:00,
2013-04-14 18:45:00,51.7,32.6,30.14,North,355,5.0,8.0,48,0.00,,,0.00,39,Wunderground v.1.15,2013-04-14 22:45:00,
2013-04-14 18:50:00,51.5,31.9,30.14,NNE,21,6.0,7.0,47,0.00,,,0.00,33,Wunderground v.1.15,2013-04-14 22:50:00,
2013-04-14 18:55:00,51.4,32.9,30.14,NNW,334,6.0,7.0,49,0.00,,,0.00,28,Wunderground v.1.15,2013-04-14 22:55:00,
2013-04-14 19:00:00,51.0,32.5,30.14,NNE,33,5.0,7.0,49,0.00,,,0.00,23,Wunderground v.1.15,2013-04-14 23:00:00,
2013-04-14 19:05:00,50.6,33.6,30.15,NNE,23,3.0,7.0,52,0.00,,,0.00,19,Wunderground v.1.15,2013-04-14 23:05:00,
2013-04-14 19:10:00,50.3,32.4,30.15,NNE,26,3.0,6.0,50,0.00,,,0.00,16,Wunderground v.1.15,2013-04-14 23:10:00,
2013-04-14 19:15:00,49.9,33.4,30.15,NNE,29,3.0,6.0,53,0.00,,,0.00,12,Wunderground v.1.15,2013-04-14 23:15:00,
2013-04-14 19:20:00,49.6,32.7,30.16,NNE,29,2.0,2.0,52,0.00,,,0.00,9,Wunderground v.1.15,2013-04-14 23:20:00,
2013-04-14 19:25:00,49.5,32.6,30.15,NNE,29,1.0,2.0,52,0.00,,,0.00,7,Wunderground v.1.15,2013-04-14 23:25:00,
2013-04-14 19:30:00,49.1,32.2,30.16,NNE,29,1.0,1.0,52,0.00,,,0.00,0,Wunderground v.1.15,2013-04-14 23:30:00,
2013-04-14 19:35:00,48.9,33.0,30.16,NNE,29,1.0,3.0,54,0.00,,,0.00,0,Wunderground v.1.15,2013-04-14 23:35:00,
2013-04-14 19:40:00,48.5,32.6,30.16,NNE,32,2.0,4.0,54,0.00,,,0.00,0,Wunderground v.1.15,2013-04-14 23:40:00,
2013-04-14 19:45:00,48.3,32.4,30.17,NNE,32,2.0,4.0,54,0.00,,,0.00,0,Wunderground v.1.15,2013-04-14 23:45:00,
2013-04-14 19:50:00,48.3,33.3,30.17,NNE,32,1.0,1.0,56,0.00,,,0.00,0,Wunderground v.1.15,2013-04-14 23:50:00,
2013-04-14 19:55:00,48.0,32.6,30.17,NNE,32,0.0,2.0,55,0.00,,,0.00,0,Wunderground v.1.15,2013-04-14 23:55:00,
2013-04-14 20:00:00,47.7,32.3,30.17,NNE,32,1.0,1.0,55,0.00,,,0.00,0,Wunderground v.1.15,2013-04-15 00:00:00,
2013-04-14 20:05:00,47.5,32.1,30.17,NNE,32,1.0,2.0,55,0.00,,,0.00,0,Wunderground v.1.15,2013-04-15 00:05:00,
2013-04-14 20:10:00,47.0,33.0,30.18,NNE,32,1.0,3.0,58,0.00,,,0.00,0,Wunderground v.1.15,2013-04-15 00:10:00,
2013-04-14 20:15:00,46.7,32.7,30.18,NNE,32,1.0,3.0,58,0.00,,,0.00,0,Wunderground v.1.15,2013-04-15 00:15:00,
2013-04-14 20:20:00,46.8,32.8,30.18,NNE,32,1.0,1.0,58,0.00,,,0.00,0,Wunderground v.1.15,2013-04-15 00:20:00,
2013-04-14 20:25:00,46.9,33.3,30.18,NNE,32,1.0,1.0,59,0.00,,,0.00,0,Wunderground v.1.15,2013-04-15 00:25:00,
2013-04-14 20:30:00,46.6,32.6,30.18,NNE,32,1.0,1.0,58,0.00,,,0.00,0,Wunderground v.1.15,2013-04-15 00:30:00,
2013-04-14 20:35:00,46.9,32.9,30.19,NNE,32,1.0,3.0,58,0.00,,,0.00,0,Wunderground v.1.15,2013-04-15 00:35:00,
2013-04-14 20:40:00,47.2,32.3,30.19,NNE,32,2.0,2.0,56,0.00,,,0.00,0,Wunderground v.1.15,2013-04-15 00:40:00,
2013-04-14 20:45:00,47.4,33.4,30.19,NE,39,3.0,3.0,58,0.00,,,0.00,0,Wunderground v.1.15,2013-04-15 00:45:00,
2013-04-14 20:50:00,47.3,33.3,30.19,NE,41,2.0,2.0,58,0.00,,,0.00,0,Wunderground v.1.15,2013-04-15 00:50:00,
2013-04-14 20:55:00,47.2,34.0,30.20,NE,41,2.0,2.0,60,0.00,,,0.00,0,Wunderground v.1.15,2013-04-15 00:55:00,
2013-04-14 21:00:00,47.2,33.2,30.20,NE,41,3.0,3.0,58,0.00,,,0.00,0,Wunderground v.1.15,2013-04-15 01:00:00,
2013-04-14 21:05:00,47.1,33.1,30.21,NE,34,3.0,3.0,58,0.00,,,0.00,0,Wunderground v.1.15,2013-04-15 01:05:00,
2013-04-14 21:10:00,47.3,33.3,30.21,NE,37,2.0,3.0,58,0.00,,,0.00,0,Wunderground v.1.15,2013-04-15 01:10:00,
2013-04-14 21:15:00,47.2,32.7,30.21,NE,37,2.0,3.0,57,0.00,,,0.00,0,Wunderground v.1.15,2013-04-15 01:15:00,
2013-04-14 21:20:00,47.0,32.5,30.21,NE,37,2.0,4.0,57,0.00,,,0.00,0,Wunderground v.1.15,2013-04-15 01:20:00,
2013-04-14 21:25:00,46.9,32.4,30.21,NE,37,3.0,4.0,57,0.00,,,0.00,0,Wunderground v.1.15,2013-04-15 01:25:00,
2013-04-14 21:30:00,46.5,32.5,30.21,NE,37,3.0,3.0,58,0.00,,,0.00,0,Wunderground v.1.15,2013-04-15 01:30:00,
2013-04-14 21:35:00,46.5,32.1,30.21,NE,37,3.0,3.0,57,0.00,,,0.00,0,Wunderground v.1.15,2013-04-15 01:35:00,
2013-04-14 21:40:00,46.7,31.8,30.21,NE,37,2.0,2.0,56,0.00,,,0.00,0,Wunderground v.1.15,2013-04-15 01:40:00,
2013-04-14 21:45:00,47.1,32.6,30.22,NE,37,1.0,2.0,57,0.00,,,0.00,0,Wunderground v.1.15,2013-04-15 01:45:00,
2013-04-14 21:50:00,47.1,32.2,30.22,NE,37,0.0,1.0,56,0.00,,,0.00,0,Wunderground v.1.15,2013-04-15 01:50:00,
2013-04-14 21:55:00,47.1,33.9,30.21,NE,37,1.0,1.0,60,0.00,,,0.00,0,Wunderground v.1.15,2013-04-15 01:55:00,
2013-04-14 22:00:00,46.9,34.1,30.22,NE,37,1.0,1.0,61,0.00,,,0.00,0,Wunderground v.1.15,2013-04-15 02:00:00,
2013-04-14 22:05:00,46.5,33.8,30.22,NE,37,1.0,2.0,61,0.00,,,0.00,0,Wunderground v.1.15,2013-04-15 02:05:00,
2013-04-14 22:10:00,46.2,33.5,30.22,NE,37,1.0,1.0,61,0.00,,,0.00,0,Wunderground v.1.15,2013-04-15 02:10:00,
2013-04-14 22:20:00,45.7,32.2,30.22,NE,36,2.0,2.0,59,0.00,,,0.00,0,Wunderground v.1.15,2013-04-15 02:20:00,
2013-04-14 22:25:00,45.6,32.1,30.22,NE,38,3.0,3.0,59,0.00,,,0.00,0,Wunderground v.1.15,2013-04-15 02:25:00,
2013-04-14 22:30:00,45.8,31.4,30.22,NE,44,2.0,2.0,57,0.00,,,0.00,0,Wunderground v.1.15,2013-04-15 02:30:00,
2013-04-14 22:35:00,45.9,31.5,30.22,ENE,60,3.0,3.0,57,0.00,,,0.00,0,Wunderground v.1.15,2013-04-15 02:35:00,
2013-04-14 22:40:00,46.1,31.3,30.22,NE,36,4.0,4.0,56,0.00,,,0.00,0,Wunderground v.1.15,2013-04-15 02:40:00,
2013-04-14 22:45:00,46.1,31.3,30.22,NE,42,4.0,4.0,56,0.00,,,0.00,0,Wunderground v.1.15,2013-04-15 02:45:00,
2013-04-14 22:50:00,46.0,31.6,30.22,ENE,72,3.0,5.0,57,0.00,,,0.00,0,Wunderground v.1.15,2013-04-15 02:50:00,
2013-04-14 22:55:00,46.0,31.2,30.22,NE,42,4.0,5.0,56,0.00,,,0.00,0,Wunderground v.1.15,2013-04-15 02:55:00,
2013-04-14 23:00:00,46.0,31.2,30.23,ENE,58,4.0,5.0,56,0.00,,,0.00,0,Wunderground v.1.15,2013-04-15 03:00:00,
2013-04-14 23:05:00,45.8,31.0,30.23,East,89,4.0,5.0,56,0.00,,,0.00,0,Wunderground v.1.15,2013-04-15 03:05:00,
2013-04-14 23:10:00,45.8,31.0,30.23,ENE,59,4.0,4.0,56,0.00,,,0.00,0,Wunderground v.1.15,2013-04-15 03:10:00,
2013-04-14 23:15:00,46.0,31.2,30.23,ENE,59,3.0,4.0,56,0.00,,,0.00,0,Wunderground v.1.15,2013-04-15 03:15:00,
2013-04-14 23:25:00,45.4,30.6,30.23,ENE,60,2.0,3.0,56,0.00,,,0.00,0,Wunderground v.1.15,2013-04-15 03:25:00,
2013-04-14 23:30:00,45.2,30.9,30.23,ENE,60,2.0,2.0,57,0.00,,,0.00,0,Wunderground v.1.15,2013-04-15 03:30:00,
2013-04-14 23:35:00,45.1,30.8,30.23,ENE,72,2.0,2.0,57,0.00,,,0.00,0,Wunderground v.1.15,2013-04-15 03:35:00,
2013-04-14 23:40:00,45.1,30.8,30.24,ENE,72,2.0,2.0,57,0.00,,,0.00,0,Wunderground v.1.15,2013-04-15 03:40:00,
2013-04-14 23:45:00,44.9,31.0,30.24,ENE,72,1.0,3.0,58,0.00,,,0.00,0,Wunderground v.1.15,2013-04-15 03:45:00,
2013-04-14 23:50:00,44.9,31.8,30.24,ENE,72,1.0,1.0,60,0.00,,,0.00,0,Wunderground v.1.15,2013-04-15 03:50:00,
2013-04-14 23:55:00,44.6,31.6,30.24,ENE,76,2.0,4.0,60,0.00,,,0.00,0,Wunderground v.1.15,2013-04-15 03:55:00,